Regional Weather Roundup
Issued by NWS

Home | Current Version | Previous Version | Graphics & Text | Print | Product List | Glossary On
Versions: 1 2 3 4 5 6 7 8 9 10 11 12 13 14 15 16 17 18 19 20 21 22 23 24 25 26 27 28 29 30 31 32 33 34 35 36 37 38 39 40 41 42 43 44 45 46 47 48 49 50
689
ASUS43 KDTX 180601
RWRMI
MICHIGAN HOURLY REGIONAL WEATHER ROUNDUP
NATIONAL WEATHER SERVICE DETROIT/PONTIAC MI
100 AM EST MON DEC 18 2017

NOTE: "FAIR" INDICATES FEW OR NO CLOUDS BELOW 12,000 FEET WITH NO
SIGNIFICANT WEATHER AND/OR OBSTRUCTION TO VISIBILITY.

MIZ047>049-052>055-059>063-066>070-074>076-081>083-180700-
SOUTHEAST LOWER MICHIGAN

CITY           SKY/WX    TMP DP  RH WIND       PRES   REMARKS
ADRIAN         CLOUDY    35  33  92 SW8       30.01F WCI  29
6HR MIN TEMP:  31; 6HR MAX TEMP:  35;

ALMA           MOCLDY    28  28 100 CALM      29.95F FOG
6HR MIN TEMP:  27; 6HR MAX TEMP:  29;

ANN ARBOR      CLOUDY    28  28 100 CALM      29.98F FOG
BAD AXE        CLOUDY    26  25  95 S5        29.98F FOG     WCI  20
6HR MIN TEMP:  26; 6HR MAX TEMP:  28;

CARO           CLOUDY    28  27  97 CALM      29.95F FOG
DETROIT CITY   PTCLDY    32  31  96 SW5       30.00F FOG     WCI  27
6HR MIN TEMP:  30; 6HR MAX TEMP:  34;

DETROIT        MOCLDY    32  29  88 S8        30.00F WCI  25
6HR MIN TEMP:  32; 6HR MAX TEMP:  36;

FLINT          CLOUDY    34  31  88 SW5       29.96F WCI  30
6HR MIN TEMP:  28; 6HR MAX TEMP:  34;

GROSSE ILE     MOCLDY    35  33  93 S3        30.00F
6HR MIN TEMP:  32; 6HR MAX TEMP:  37;

HILLSDALE      CLOUDY    36  34  93 SW7       29.98F FOG     WCI  30
HOWELL         CLOUDY    34  32  94 S5        29.95F FOG     WCI  30
6HR MIN TEMP:  31; 6HR MAX TEMP:  34;


CITY           SKY/WX    TMP DP  RH WIND       PRES   REMARKS
JACKSON        CLOUDY    38  33  82 S12       29.97F WCI  30
6HR MIN TEMP:  33; 6HR MAX TEMP:  38;

LAMBERTVILLE   CLOUDY    38  34  85 SW7       30.01F WCI  33
6HR MIN TEMP:  32; 6HR MAX TEMP:  38;

LANSING        MOCLDY    34  32  92 S6        29.95F WCI  29
6HR MIN TEMP:  29; 6HR MAX TEMP:  35;

LAPEER         CLOUDY    28  27  99 SE3       29.96F FOG
6HR MIN TEMP:  26; 6HR MAX TEMP:  28;

MASON          CLOUDY    35  31  86 CALM      29.96F FOG
6HR MIN TEMP:  32; 6HR MAX TEMP:  36;

MONROE         CLOUDY    37  34  89 SW3       30.00F
6HR MIN TEMP:  32; 6HR MAX TEMP:  37;

MT. CLEMENS    CLEAR     25  25 100 CALM      29.98F VSB 1/4
6HR MIN TEMP:  24; 6HR MAX TEMP:  30;

PONTIAC        PTCLDY    29  29 100 CALM      29.96F FOG
6HR MIN TEMP:  28; 6HR MAX TEMP:  30;

PORT HOPE        N/A     27  24  89 S5        29.97F WCI  22
6HR MIN TEMP:  27; 6HR MAX TEMP:  30;

PORT HURON     CLOUDY    25  21  86 CALM      29.99F
TRI CITIES     CLOUDY    28  27  96 CALM      29.96F FOG
6HR MIN TEMP:  27; 6HR MAX TEMP:  28;

MIDLAND        CLOUDY    28  27  94 CALM      29.95F FOG
6HR MIN TEMP:  28; 6HR MAX TEMP:  28;

TROY           CLEAR     28  26  94 SW3       30.01F FOG
SAGINAW HB     CLOUDY    28  27  93 CALM      29.96F FOG
$$
MIZ043>046-050>051-056>058-064>065-071>073-077>080-180700-
SOUTHWEST LOWER MICHIGAN

CITY           SKY/WX    TMP DP  RH WIND       PRES   REMARKS
BATTLE CREEK   CLOUDY    37  34  89 SW13      29.97F WCI  29
6HR MIN TEMP:  32; 6HR MAX TEMP:  37;

BENTON HARBOR  CLOUDY    40  34  79 SW7       29.98F
6HR MIN TEMP:  38; 6HR MAX TEMP:  40;

BIG RAPIDS     CLOUDY    27  26  96 CALM      29.93F FOG
6HR MIN TEMP:  26; 6HR MAX TEMP:  27;

COLDWATER      CLOUDY    38  37  93 SW7       29.99F WCI  33
6HR MIN TEMP:  33; 6HR MAX TEMP:  38;

HOLLAND        CLOUDY    34  31  88 SW6       29.97S FOG     WCI  29
6HR MIN TEMP:  28; 6HR MAX TEMP:  34;

GRAND RAPIDS   CLOUDY    33  31  92 S10       29.94F FOG     WCI  25
6HR MIN TEMP:  27; 6HR MAX TEMP:  33;

IONIA          CLOUDY    28  28  99 CALM      29.93F FOG
6HR MIN TEMP:  27; 6HR MAX TEMP:  30;

KALAMAZOO      CLOUDY    38  34  85 S9        29.97F WCI  31
6HR MIN TEMP:  32; 6HR MAX TEMP:  38;

LUDINGTON      CLOUDY    29  27  93 E3        29.94F FOG
6HR MIN TEMP:  29; 6HR MAX TEMP:  29;

MARSHALL       CLOUDY    37  36  94 SW9       29.96F WCI  31
6HR MIN TEMP:  32; 6HR MAX TEMP:  37;

MOUNT PLEASANT FOG       28  27  95 CALM      29.94F VSB 1/4
6HR MIN TEMP:  28; 6HR MAX TEMP:  29;

MUSKEGON       CLOUDY    31  27  85 SE3       29.95S FOG
6HR MIN TEMP:  30; 6HR MAX TEMP:  31;

SOUTH HAVEN    CLOUDY    41  36  82 SW7       29.97S
$$
MIZ016>042-180700-
NORTHERN LOWER MICHIGAN

CITY           SKY/WX    TMP DP  RH WIND       PRES   REMARKS
ALPENA         CLOUDY    28  28 100 S3        29.96F FOG
6HR MIN TEMP:  27; 6HR MAX TEMP:  29;

BEAVER ISLAND  CLOUDY    31  29  92 CALM      29.92F
6HR MIN TEMP:  29; 6HR MAX TEMP:  32;

BELLAIRE       CLOUDY    27  27 100 S5        29.95F FOG     WCI  21
6HR MIN TEMP:  27; 6HR MAX TEMP:  28;

CADILLAC       FOG       25  24  99 CALM      29.89F VSB 1/4
CHARLEVOIX     CLOUDY    28  26  94 SE3       29.96F FOG
6HR MIN TEMP:  27; 6HR MAX TEMP:  28;

FRANKFORT      CLOUDY    30  29  96 SE5       29.94F FOG     WCI  25
GAYLORD        FOG       24  22  91 S5        29.90F VSB 1/2 WCI  18
6HR MIN TEMP:  23; 6HR MAX TEMP:  24;

GRAYLING       LGT SNOW  25  23  93 CALM      29.94F
6HR MIN TEMP:  24; 6HR MAX TEMP:  25;

HARBOR SPRINGS CLOUDY    26  25  93 CALM      29.94F
HOUGHTON LAKE  FOG       25  24  96 CALM      29.92F VSB 1/4
6HR MIN TEMP:  24; 6HR MAX TEMP:  25;

MANISTEE       CLOUDY    28  26  92 E3        29.94F FOG
OSCODA         CLOUDY    29  28  95 CALM      29.96F FOG
6HR MIN TEMP:  29; 6HR MAX TEMP:  31;

PELLSTON       CLOUDY    26  24  92 CALM      29.94F
6HR MIN TEMP:  25; 6HR MAX TEMP:  26;

ROGERS CITY    CLOUDY    28  25  89 S5        29.97F WCI  23
TRAVERSE CITY  CLOUDY    28  26  92 CALM      29.94F FOG
6HR MIN TEMP:  27; 6HR MAX TEMP:  28;

$$
MIZ007>008-015-180700-
EASTERN UPPER MICHIGAN

CITY           SKY/WX    TMP DP  RH WIND       PRES   REMARKS
MACKINAC ISLAN CLOUDY    28  25  86 S5        29.94F WCI  23
6HR MIN TEMP:  27; 6HR MAX TEMP:  28;

NEWBERRY       LGT SNOW  21  20  96 CALM      29.91F
6HR MIN TEMP:  17; 6HR MAX TEMP:  21;

S. S. MARIE    LGT SNOW  21  18  88 E5        29.95F FOG     WCI  15
6HR MIN TEMP:  17; 6HR MAX TEMP:  21; 6HR PCP:  0.08;

MUNISING         N/A     26  26 100 CALM      29.90F
6HR MIN TEMP:  26; 6HR MAX TEMP:  27; 6HR PCP:  0.04;

$$
MIZ004>006-011>014-085-180700-
CENTRAL UPPER MICHIGAN

CITY           SKY/WX    TMP DP  RH WIND       PRES   REMARKS
MANISTIQUE     LGT SNOW  30  25  81 CALM      29.91F
6HR MIN TEMP:  30; 6HR MAX TEMP:  32;

ESCANABA       CLOUDY    28  26  92 W3        29.92F
6HR MIN TEMP:  28; 6HR MAX TEMP:  30;

MENOMINEE      CLOUDY    29  27  92 SW5       29.94F FOG     WCI  24
6HR MIN TEMP:  29; 6HR MAX TEMP:  31;

$$
MIZ001>003-009>011-084-180700-
WESTERN UPPER MICHIGAN

CITY           SKY/WX    TMP DP  RH WIND       PRES   REMARKS
IRON MOUNTAIN  CLOUDY    26  23  88 CALM      29.87F FOG
6HR MIN TEMP:  25; 6HR MAX TEMP:  27; 6HR PCP: TRACE;

HOUGHTON       CLOUDY    27  22  81 SW7       29.86F WCI  19
6HR MIN TEMP:  25; 6HR MAX TEMP:  27;

COPPER HARBOR    N/A     28  23  81 W3        29.88F
6HR MIN TEMP:  25; 6HR MAX TEMP:  28;

IRONWOOD       CLOUDY    26  24  92 SW7       29.88F WCI  18
6HR MIN TEMP:  23; 6HR MAX TEMP:  26;

$$

ABBREVIATIONS USED IN REMARKS
   TC - TEMPERATURE IN CELSIUS
  WCI - WIND CHILL INDEX
   HX - HEAT INDEX
  VSB - VISIBILITY





USA.gov is the U.S. government's official web portal to all federal, state and local government web resources and services.